Location: Vinland
(47.7731°N, 122.6974°W)
Time: 02:42:06
(UTC+00:00)

S-56A Canister/Altair - Pass Details

Date: 02 April 2023
Orbit: 639 x 2492 km, 38.9° (Epoch: 31 May)

Event Time Altitude Azimuth Distance (km) Brightness Sun altitude
Rises 04:04:39 0° 265° (W) 4,884 12.8 -14.3°
Reaches altitude 10° 04:07:34 10° 261° (W) 4,117 12.1 -14.8°
Maximum altitude 04:18:47 56° 188° (S) 2,568 10.0 -16.5°
Enters shadow 04:28:52 22° 123° (ESE) 4,157 10.6 -17.9°
